Flag for Canada Weather past 2 weeks in Labrador City, Newfoundland and Labrador, Canada

Now
59 °F

Sprinkles. Low clouds.


Feels Like: 58 °F
Forecast: 55 / 65 °F
Wind: 7 mph from West

Location: Wabush Lake

Current Time: Aug 1, 2015 at 3:14:38 AM

Latest Report: Aug 1, 2015 at 2:00 AM


Visibility: 15 mi

Pressure: 29.52 "Hg (27.63 "Hg at 558m altitude)

Humidity: 94%

Dew point: 57 °F

Location of Labrador CityLocation

Historic Weather in Labrador City — Graph

°F

Labrador City temperature yesterday

Maximum temperature yesterday: 72 °F (at 4:00 PM)
Minimum temperature yesterday: 57 °F (at 6:00 AM)
Average temperature yesterday: 62 °F

Past Weeks' High & Low Weather Summary

 TemperatureHumidityPressure
High79 °F (Jul 30, 1:00 PM)100% (Jul 18, 5:48 AM)30.10 "Hg (Jul 18, 5:48 AM)
Low41 °F (Jul 25, 5:03 AM)38% (Jul 25, 5:00 PM)29.48 "Hg (Jul 31, 5:54 PM)
Average56 °F82%29.87 "Hg
* Reported Jul 17 1:00 AM — Aug 1 1:00 AM, Labrador City, Weather by CustomWeather, © 2015

Note: Actual official high and low records may vary slightly from our data, if they occured in-between our weather recording intervals... More about our weather records

Advertising

Labrador City weather history for previous 24 hours

 ConditionsComfort  
Time TempWeatherWind HumidityBarometerVisibility
1:00 AM
Sat, Aug 1
59 °FSprinkles. Low clouds.7 mph94%29.52 "Hg15 mi
12:00 AM59 °FSprinkles. Mostly cloudy.8 mph94%29.53 "Hg15 mi
11:00 PM
Fri, Jul 31
59 °FSprinkles. Mostly cloudy.5 mph94%29.54 "Hg15 mi
10:00 PM61 °FSprinkles. More clouds than sun.5 mph94%29.53 "Hg12 mi
9:00 PM63 °FSprinkles. More clouds than sun.3 mph88%29.52 "Hg10 mi
8:00 PM63 °FSprinkles. Mostly cloudy.5 mph88%29.52 "Hg10 mi
7:00 PM64 °FThunderstorms. Broken clouds.3 mph83%29.49 "Hg12 mi
6:00 PM70 °FThunderstorms. Partly sunny.7 mph69%29.48 "Hg15 mi
5:54 PM70 °FThunderstorms. Partly sunny.9 mph69%29.48 "Hg15 mi
5:00 PM70 °FPartly sunny.10 mph69%29.49 "Hg15 mi
4:00 PM72 °FBroken clouds.8 mph69%29.51 "Hg15 mi
3:00 PM68 °FSprinkles. Partly sunny.7 mph78%29.53 "Hg15 mi
2:00 PM64 °FMostly cloudy.8 mph83%29.55 "Hg15 mi
1:00 PM63 °FFog.8 mph94%29.57 "Hg6 mi
12:00 PM61 °FDrizzle. Low clouds.10 mph94%29.57 "Hg15 mi
11:00 AM63 °FSprinkles. Low clouds.8 mph88%29.57 "Hg15 mi
10:00 AM61 °FSprinkles. Low clouds.5 mph94%29.59 "Hg15 mi
9:00 AM59 °FSprinkles. Mostly cloudy.6 mph94%29.58 "Hg15 mi
8:53 AM59 °FSprinkles. Mostly cloudy.7 mph94%29.58 "Hg15 mi
8:00 AM59 °FSprinkles. Mostly cloudy.5 mph94%29.59 "Hg15 mi
7:00 AM57 °FSprinkles. Mostly cloudy.6 mph94%29.59 "Hg12 mi
6:00 AM57 °FSprinkles. Low clouds.6 mph94%29.59 "Hg15 mi
5:04 AM59 °FSprinkles. Overcast.3 mph88%29.60 "Hg12 mi
4:00 AM59 °FMostly cloudy.7 mph88%29.59 "Hg15 mi
3:00 AM59 °FMostly cloudy.9 mph88%29.59 "Hg15 mi
Weather by CustomWeather, © 2015

See weather overviewHow to use our weather pages